Powrót do katalogu

GONETS D1 2

AktywnyŁącznośćPO
NORAD 23788·PAYLOAD·🇷🇺 Russia

Wystrzelony Feb 19, 1996 z Plesetsk Cosmodrome

Loading…

Następne Przeloty (najbliższe 24 godziny)

TLE

ŚwieżeSource: Space-Track

Epoka: Sep 14, 2026, 08:40 UTC

1 23788U 96009B   26257.36160393 -.00000005  00000-0 -86586-4 0  9999
2 23788  82.5653 247.4255 0006069 219.4075 140.6576 12.63218382409353

Śledź GONETS D1 2 w czasie rzeczywistym z AllMySat

Download on the App Store